LA3HX Weather Reports


time (UTC)temp
F
wind
direction
speed
knots
gust
knots
rain 1hr
in
rain 24hr
in
rain mn
in
humidity
%
barometer
mb
20211017162506 46 90 0.0 0.0 0.00 0.00 0.00 44 992.6
20211017162010 46 90 0.0 0.0 0.00 0.00 0.00 43 992.5
20211017161507 47 90 0.0 0.0 0.00 0.00 0.00 41 992.6
20211017161011 47 90 0.0 0.0 0.00 0.00 0.00 41 992.6
20211017160506 48 90 0.0 0.0 0.00 0.00 0.00 40 992.6
20211017160007 49 90 0.0 0.0 0.00 0.00 0.00 38 992.5
20211017155507 50 90 0.0 0.0 0.00 0.00 0.00 35 992.5
20211017155009 51 90 0.0 0.0 0.00 0.00 0.00 34 992.4
20211017154506 52 90 0.0 0.0 0.00 0.00 0.00 32 992.5
20211017154010 53 90 0.0 0.0 0.00 0.00 0.00 31 992.5
20211017153507 54 90 0.0 0.0 0.00 0.00 0.00 30 992.3
20211017153010 56 90 0.0 0.0 0.00 0.00 0.00 24 992.5
20211017152507 58 90 0.0 0.0 0.00 0.00 0.00 22 992.3
20211017152009 61 90 0.0 0.0 0.00 0.00 0.00 22 992.2
20211017151507 64 90 0.0 0.9 0.00 0.00 0.00 21 992.2
20211017151010 64 90 0.0 0.9 0.00 0.00 0.00 21 992.3
20211017150507 64 90 0.0 0.9 0.00 0.00 0.00 21 992.0
20211017150006 64 90 0.0 0.9 0.00 0.00 0.00 21 992.0
20211017145506 63 90 0.0 0.9 0.00 0.00 0.00 20 992.0
20211017145009 64 90 0.0 0.9 0.00 0.00 0.00 20 991.9
20211017144506 66 90 0.0 0.9 0.00 0.00 0.00 20 992.0
20211017144011 67 90 0.9 0.9 0.00 0.00 0.00 20 991.8
20211017143507 68 90 0.0 0.9 0.00 0.00 0.00 20 991.9
20211017143011 68 90 0.9 0.9 0.00 0.00 0.00 20 992.0
20211017142507 68 90 0.0 0.9 0.00 0.00 0.00 20 992.1
20211017142010 68 90 0.0 0.9 0.00 0.00 0.00 20 991.9
20211017141507 68 90 0.9 1.7 0.00 0.00 0.00 20 991.9
20211017141009 67 90 0.0 0.9 0.00 0.00 0.00 20 991.9
20211017140506 65 90 0.0 0.9 0.00 0.00 0.00 20 992.0
20211017140007 66 90 0.0 0.9 0.00 0.00 0.00 15 991.5
20211017135507 69 90 0.9 0.9 0.00 0.00 0.00 15 991.7
20211017135010 72 90 0.0 0.9 0.00 0.00 0.00 15 991.8
20211017134507 74 90 0.0 0.9 0.00 0.00 0.00 15 991.9
20211017134011 73 90 0.0 0.9 0.00 0.00 0.00 15 991.8
20211017133507 72 90 0.9 0.9 0.00 0.00 0.00 15 991.7
20211017133011 72 90 0.9 1.7 0.00 0.00 0.00 15 991.6
20211017132506 76 90 0.9 0.9 0.00 0.00 0.00 15 991.6
20211017132011 77 90 0.0 0.9 0.00 0.00 0.00 20 991.5
20211017131507 76 90 0.0 0.9 0.00 0.00 0.00 15 991.5
20211017131010 75 90 0.0 0.9 0.00 0.00 0.00 15 991.5
20211017130507 74 90 0.0 0.9 0.00 0.00 0.00 15 991.6
20211017130006 74 90 0.9 0.9 0.00 0.00 0.00 15 991.4
20211017125506 74 90 0.9 1.7 0.00 0.00 0.00 15 991.4
20211017125009 75 90 0.9 1.7 0.00 0.00 0.00 15 991.3
20211017124507 76 90 0.0 0.9 0.00 0.00 0.00 15 991.3
20211017124010 74 90 0.0 0.9 0.00 0.00 0.00 15 991.3
20211017123506 73 90 0.9 0.9 0.00 0.00 0.00 15 991.6
20211017123011 72 90 0.0 0.9 0.00 0.00 0.00 15 991.3
20211017122507 71 90 0.9 1.7 0.00 0.00 0.00 15 991.3
20211017122010 72 90 0.9 1.7 0.00 0.00 0.00 15 991.3
20211017121506 72 90 0.0 0.9 0.00 0.00 0.00 15 991.2
20211017121011 71 90 0.0 0.9 0.00 0.00 0.00 15 991.3
20211017120507 71 90 0.0 0.9 0.00 0.00 0.00 15 991.4
20211017120006 71 90 0.0 0.9 0.00 0.00 0.00 15 991.3
20211017115506 71 90 0.0 0.9 0.00 0.00 0.00 20 991.3
20211017115009 71 90 0.0 0.9 0.00 0.00 0.00 20 991.1
20211017114506 71 90 0.9 0.9 0.00 0.00 0.00 20 991.0
20211017114010 70 90 0.0 0.9 0.00 0.00 0.00 20 991.3
20211017113506 69 90 0.0 1.7 0.00 0.00 0.00 20 991.0
20211017113010 69 90 0.9 1.7 0.00 0.00 0.00 20 990.9
20211017112506 69 90 0.0 0.9 0.00 0.00 0.00 21 991.1
20211017112009 68 90 0.9 0.9 0.00 0.00 0.00 21 991.0
20211017111506 67 90 0.0 0.9 0.00 0.00 0.00 21 991.1
20211017111011 67 90 0.9 0.9 0.00 0.00 0.00 22 991.1
20211017110508 66 90 0.0 0.9 0.00 0.00 0.00 22 991.1
20211017110007 65 90 0.0 2.6 0.00 0.00 0.00 22 990.9
20211017105507 66 90 0.9 0.9 0.00 0.00 0.00 23 991.0
20211017105009 65 90 0.9 0.9 0.00 0.00 0.00 23 990.7
20211017104507 64 90 0.0 0.9 0.00 0.00 0.00 23 991.0
20211017104010 64 90 0.9 0.9 0.00 0.00 0.00 23 990.7
20211017103507 64 90 0.0 0.9 0.00 0.00 0.00 23 990.9
20211017103010 63 90 0.0 0.9 0.00 0.00 0.00 24 990.7
20211017102506 62 90 0.0 0.9 0.00 0.00 0.00 30 990.9
20211017102011 62 90 0.9 0.9 0.00 0.00 0.00 30 990.9
20211017101507 62 90 0.9 0.9 0.00 0.00 0.00 30 990.6
20211017101010 61 90 0.0 0.9 0.00 0.00 0.00 30 990.5
20211017100507 61 90 0.0 0.9 0.00 0.00 0.00 30 990.5
20211017100007 61 90 0.0 0.9 0.00 0.00 0.00 31 990.7
20211017095507 60 90 0.0 0.9 0.00 0.00 0.00 31 990.5
20211017095011 61 90 0.0 0.9 0.00 0.00 0.00 30 990.4
20211017094508 62 90 0.9 0.9 0.00 0.00 0.00 31 990.4
20211017094010 62 90 0.0 0.9 0.00 0.00 0.00 31 990.3
20211017093507 63 90 0.9 0.9 0.00 0.00 0.00 31 990.1
20211017093011 62 90 0.0 0.9 0.00 0.00 0.00 31 990.3
20211017092507 62 90 0.0 0.9 0.00 0.00 0.00 32 990.2
20211017092011 61 90 0.0 0.9 0.00 0.00 0.00 32 990.1
20211017091507 61 90 0.0 0.9 0.00 0.00 0.00 31 990.0
20211017091010 61 90 0.9 0.9 0.00 0.00 0.00 31 990.2
20211017090507 62 90 0.0 0.9 0.00 0.00 0.00 31 990.3
20211017090007 62 90 0.0 0.9 0.00 0.00 0.00 32 990.2
20211017085508 61 90 0.0 0.9 0.00 0.00 0.00 32 990.0
20211017085010 60 90 0.9 0.9 0.00 0.00 0.00 32 990.0
20211017084506 59 90 0.0 0.9 0.00 0.00 0.00 32 989.9
20211017084009 59 90 0.0 0.9 0.00 0.00 0.00 33 990.1
20211017083507 58 90 0.0 0.9 0.00 0.00 0.00 33 989.9
20211017083011 59 90 0.9 0.9 0.00 0.00 0.00 33 989.9
20211017082506 59 90 0.0 0.9 0.00 0.00 0.00 32 990.0
20211017082010 60 90 0.0 0.9 0.00 0.00 0.00 32 990.0
20211017081506 61 90 0.0 0.0 0.00 0.00 0.00 33 989.9
20211017081010 59 90 0.0 0.9 0.00 0.00 0.00 34 989.8
20211017080507 59 90 0.0 0.0 0.00 0.00 0.00 37 989.8
20211017080007 56 90 0.0 0.9 0.00 0.00 0.00 39 989.8
20211017075507 53 90 0.0 0.9 0.00 0.00 0.00 41 989.8
20211017075008 52 90 0.0 0.9 0.00 0.00 0.00 41 989.8
20211017074506 53 90 0.0 0.9 0.00 0.00 0.00 41 989.8
20211017074008 53 90 0.0 0.9 0.00 0.00 0.00 42 989.8
20211017073505 51 90 0.0 0.9 0.00 0.00 0.00 43 989.6
20211017073007 52 90 0.0 0.9 0.00 0.00 0.00 46 989.4
20211017072505 50 90 0.0 0.0 0.00 0.00 0.00 52 989.5
20211017072008 46 90 0.0 0.0 0.00 0.00 0.00 55 989.5
20211017071506 43 90 0.0 0.0 0.00 0.00 0.00 62 989.4
20211017071009 40 90 0.0 0.0 0.00 0.00 0.00 63 989.2
20211017070505 39 90 0.0 0.0 0.00 0.00 0.00 64 989.1
20211017070004 38 88 0.0 0.0 0.00 0.00 0.00 65 989.1
20211017065506 37 45 0.0 0.0 0.00 0.00 0.00 64 989.0
20211017065006 36 45 0.0 0.0 0.00 0.00 0.00 64 989.2
20211017064505 36 45 0.0 0.0 0.00 0.00 0.00 64 988.8
20211017064008 36 45 0.0 0.0 0.00 0.00 0.00 64 988.8
20211017063506 36 45 0.0 0.0 0.00 0.00 0.00 63 988.7
20211017063009 36 45 0.0 0.0 0.00 0.00 0.00 63 988.7
20211017062505 36 45 0.0 0.0 0.00 0.00 0.00 63 988.8
20211017062008 36 45 0.0 0.0 0.00 0.00 0.00 63 988.8
20211017061505 36 45 0.0 0.0 0.00 0.00 0.00 63 988.9
20211017061008 36 45 0.0 0.0 0.00 0.00 0.00 63 988.7
20211017060506 36 45 0.0 0.0 0.00 0.00 0.00 63 988.3
20211017060006 36 45 0.0 0.0 0.00 0.00 0.00 63 988.6
20211017055505 36 45 0.0 0.0 0.00 0.00 0.00 63 988.6
20211017055008 36 45 0.0 0.0 0.00 0.00 0.00 63 988.3
20211017054505 36 45 0.0 0.0 0.00 0.00 0.00 63 988.2
20211017054006 36 45 0.0 0.0 0.00 0.00 0.00 63 988.4
20211017053506 36 45 0.0 0.0 0.00 0.00 0.00 63 988.3
20211017053009 36 45 0.0 0.0 0.00 0.00 0.00 63 988.2
20211017052505 36 45 0.0 0.0 0.00 0.00 0.00 63 988.1
20211017052008 36 45 0.0 0.0 0.00 0.00 0.00 63 988.1
20211017051505 36 45 0.0 0.0 0.00 0.00 0.00 63 988.1
20211017051009 36 45 0.0 0.0 0.00 0.00 0.00 62 988.1
20211017050505 37 45 0.0 0.0 0.00 0.00 0.00 62 987.9
20211017050006 37 45 0.0 0.0 0.00 0.00 0.00 62 987.8
20211017045506 37 45 0.0 0.0 0.00 0.00 0.00 62 988.0
20211017045008 37 45 0.0 0.0 0.00 0.00 0.00 62 987.8
20211017044505 37 45 0.0 0.0 0.00 0.00 0.00 63 987.8
20211017044008 37 45 0.0 0.0 0.00 0.00 0.00 63 987.8
20211017043505 37 45 0.0 0.9 0.00 0.00 0.00 63 987.8
20211017043008 37 45 0.0 0.0 0.00 0.00 0.00 63 987.9
20211017042505 37 45 0.0 0.0 0.00 0.00 0.00 63 987.8
20211017042008 37 45 0.0 0.0 0.00 0.00 0.00 63 987.6
20211017041505 37 45 0.0 0.9 0.00 0.00 0.00 63 987.6
20211017041008 37 45 0.0 0.0 0.00 0.00 0.00 63 987.8
20211017040505 37 45 0.0 0.0 0.00 0.00 0.00 62 987.5
20211017040006 38 45 0.0 0.9 0.00 0.00 0.00 62 987.7
20211017035505 38 45 0.0 0.9 0.00 0.00 0.00 62 987.5
20211017035009 38 45 0.0 0.9 0.00 0.00 0.00 62 987.6
20211017034506 38 45 0.0 0.0 0.00 0.00 0.00 63 987.8
20211017034010 38 45 0.0 0.0 0.00 0.00 0.00 63 987.6
20211017033505 38 45 0.0 0.0 0.00 0.00 0.00 64 987.6
20211017033009 38 45 0.0 0.0 0.00 0.00 0.00 64 987.5
20211017032505 37 45 0.0 0.0 0.00 0.00 0.00 65 987.5
20211017032009 37 45 0.0 0.0 0.00 0.00 0.00 65 987.7
20211017031506 37 45 0.0 0.0 0.00 0.00 0.00 66 987.5
20211017031009 37 45 0.0 0.9 0.00 0.00 0.00 66 987.6
20211017030505 37 45 0.0 0.9 0.00 0.00 0.00 66 987.5
20211017030006 37 45 0.0 0.9 0.00 0.00 0.00 66 987.5
20211017025506 37 45 0.0 0.0 0.00 0.00 0.00 66 987.5
20211017025008 37 45 0.0 0.0 0.00 0.00 0.00 66 987.3
20211017024505 37 45 0.0 0.0 0.00 0.00 0.00 66 987.4
20211017024008 37 45 0.0 0.0 0.00 0.00 0.00 65 987.3
20211017023506 37 47 0.0 0.0 0.00 0.00 0.00 65 987.3
20211017023009 37 90 0.0 0.0 0.00 0.00 0.00 65 987.1
20211017022505 37 90 0.0 0.0 0.00 0.00 0.00 65 987.4
20211017022008 37 90 0.0 0.0 0.00 0.00 0.00 65 987.1
20211017021505 37 90 0.0 0.0 0.00 0.00 0.00 65 987.1
20211017021009 38 90 0.0 0.0 0.00 0.00 0.00 65 987.1
20211017020506 38 90 0.0 0.0 0.00 0.00 0.00 65 987.2
20211017020006 38 90 0.0 0.0 0.00 0.00 0.00 65 987.4
20211017015505 38 90 0.0 0.9 0.00 0.00 0.00 65 987.2
20211017015008 38 180 0.0 0.9 0.00 0.00 0.00 65 986.9
20211017014505 37 225 0.0 0.9 0.00 0.00 0.00 65 987.1
20211017014008 37 90 0.0 0.9 0.00 0.00 0.00 64 986.8
20211017013505 38 90 0.0 0.9 0.00 0.00 0.00 64 986.9
20211017013008 38 180 0.0 0.0 0.00 0.00 0.00 64 986.9
20211017012505 38 180 0.0 0.0 0.00 0.00 0.00 64 986.9
20211017012008 38 180 0.0 0.0 0.00 0.00 0.00 64 987.0
20211017011505 38 180 0.0 0.0 0.00 0.00 0.00 63 986.8
20211017011009 38 180 0.0 0.0 0.00 0.00 0.00 63 986.9
20211017010506 38 180 0.0 0.0 0.00 0.00 0.00 63 986.8
20211017010006 38 180 0.0 0.9 0.00 0.00 0.00 63 986.8
20211017005505 38 180 0.0 0.0 0.00 0.00 0.00 63 986.7
20211017005009 38 180 0.0 0.0 0.00 0.00 0.00 62 986.7
20211017004506 38 180 0.0 0.0 0.00 0.00 0.00 62 986.7
20211017004008 38 180 0.0 0.0 0.00 0.00 0.00 62 986.8
20211017003505 38 180 0.0 0.0 0.00 0.00 0.00 62 986.8
20211017003010 38 180 0.0 0.0 0.00 0.00 0.00 62 986.7
20211017002505 38 180 0.0 0.9 0.00 0.00 0.00 62 986.8
20211017002009 38 225 0.0 0.9 0.00 0.00 0.00 62 986.8
20211017001506 38 225 0.0 0.0 0.00 0.00 0.00 62 986.5
20211017001009 38 225 0.0 0.9 0.00 0.00 0.00 62 986.8
20211017000505 38 225 0.0 0.0 0.00 0.00 0.00 62 986.7
20211017000007 38 225 0.0 0.0 0.00 0.00 0.00 62 986.6
20211016235505 38 225 0.0 0.0 0.00 0.00 0.00 62 986.6
20211016235008 39 225 0.0 0.0 0.00 0.00 0.00 62 986.5
20211016234505 39 225 0.0 0.0 0.00 0.00 0.00 62 986.5
20211016234008 39 225 0.0 0.0 0.00 0.00 0.00 62 986.6
20211016233505 39 225 0.0 0.0 0.00 0.00 0.00 62 986.5
20211016233008 39 225 0.0 0.0 0.00 0.00 0.00 61 986.4
20211016232506 39 225 0.0 0.0 0.00 0.00 0.00 61 986.5
20211016232009 39 225 0.0 0.0 0.00 0.00 0.00 61 986.3
20211016231505 39 225 0.0 0.0 0.00 0.00 0.00 61 986.3
20211016231009 39 225 0.0 0.0 0.00 0.00 0.00 61 986.2
20211016230506 40 225 0.0 0.0 0.00 0.00 0.00 61 986.1
20211016230005 40 225 0.0 0.0 0.00 0.00 0.00 61 986.3
20211016225505 40 225 0.0 0.0 0.00 0.00 0.00 61 986.4
20211016225009 40 225 0.0 0.0 0.00 0.00 0.00 61 986.1
20211016224506 40 225 0.0 0.0 0.00 0.00 0.00 61 986.2
20211016224009 40 225 0.0 0.9 0.00 0.00 0.00 61 986.3
20211016223506 40 225 0.0 0.0 0.00 0.00 0.00 61 986.3
20211016223009 40 225 0.0 0.0 0.00 0.00 0.00 60 986.1
20211016222505 40 225 0.0 0.9 0.00 0.00 0.00 60 986.0
20211016222008 40 225 0.0 0.9 0.00 0.00 0.00 60 986.1
20211016221506 40 225 0.0 0.0 0.00 0.00 0.00 60 986.1
20211016221009 40 225 0.0 0.0 0.00 0.00 0.00 60 986.2
20211016220505 41 225 0.0 0.0 0.00 0.00 0.00 60 986.1
20211016220005 41 225 0.0 0.9 0.00 0.00 0.00 60 986.0
20211016215505 41 225 0.0 0.9 0.00 0.00 0.00 60 986.0
20211016215008 41 225 0.0 0.9 0.00 0.00 0.00 60 985.9
20211016214506 41 225 0.0 0.9 0.00 0.00 0.00 60 985.9
20211016214009 41 225 0.0 0.0 0.00 0.00 0.00 60 986.0
20211016213505 41 225 0.0 0.0 0.00 0.00 0.00 60 985.9
20211016213009 41 225 0.0 0.9 0.00 0.00 0.00 60 986.0
20211016212507 41 225 0.0 0.9 0.00 0.00 0.00 60 985.9
20211016212009 41 225 0.0 0.0 0.00 0.00 0.00 59 985.8
20211016211506 41 225 0.0 0.9 0.00 0.00 0.00 59 985.8
20211016211009 41 225 0.9 0.9 0.00 0.00 0.00 58 985.7
20211016210505 41 225 0.0 0.0 0.00 0.00 0.00 58 985.7
20211016210006 41 225 0.0 0.0 0.00 0.00 0.00 58 985.7
20211016205506 42 225 0.0 0.0 0.00 0.00 0.00 57 985.8
20211016205009 42 225 0.0 0.0 0.00 0.00 0.00 56 985.6
20211016204506 42 225 0.0 0.0 0.00 0.00 0.00 56 985.4
20211016204009 43 225 0.0 0.0 0.00 0.00 0.00 55 985.5
20211016203506 43 225 0.0 0.9 0.00 0.00 0.00 55 985.4
20211016203009 43 225 0.0 0.9 0.00 0.00 0.00 55 985.6
20211016202506 43 225 0.0 0.9 0.00 0.00 0.00 55 985.5
20211016202009 42 225 0.0 0.9 0.00 0.00 0.00 56 985.7
20211016201505 42 225 0.0 0.9 0.00 0.00 0.00 56 985.2
20211016201009 42 225 0.0 0.9 0.00 0.00 0.00 56 985.4
20211016200506 42 225 0.0 0.9 0.00 0.00 0.00 56 985.8
20211016200005 42 225 0.0 0.9 0.00 0.00 0.00 56 985.4
20211016195506 43 225 0.0 0.0 0.00 0.00 0.00 55 985.4
20211016195009 43 225 0.0 0.0 0.00 0.00 0.00 55 985.4
20211016194506 43 225 0.0 0.9 0.00 0.00 0.00 54 985.4
20211016194009 44 225 0.0 0.9 0.00 0.00 0.00 54 985.3
20211016193507 44 225 0.9 0.9 0.00 0.00 0.00 53 985.6
20211016193008 44 225 0.0 0.9 0.00 0.00 0.00 53 985.4
20211016192506 44 225 0.0 0.9 0.00 0.00 0.00 53 985.5
20211016192009 45 225 0.0 0.9 0.00 0.00 0.00 52 985.3
20211016191505 45 225 0.0 1.7 0.00 0.00 0.00 52 985.5
20211016191007 44 225 0.9 1.7 0.00 0.00 0.00 53 985.4